Vanch

Tajikistan     38˚22′17″N   71˚27′40″E
temp.,
°C
wind,
m/s
gust,
m/s
humid.,
%
clouds,
%
prec.,
mm/h
press.,
hPa
HPBL,
m
2 december, wed
wed223:00−7˚sse228157 0.8 103021
02:00−9˚se118646 0.1 103221
05:00−8˚sse118973 0.2 103321
08:00−7˚se1188100 0.1 103424
11:00−3˚wnw1183100 0.1 1030271
14:00−3˚w2193100 0.4 1026221
17:00−5˚s1189100 0.6 102722
20:00−6˚sse3379100 0.4 103027
3 december, thu
thu323:00−9˚se227398 0.5 103021
02:00−8˚s1278100 0.3 103121
05:00−10˚sse2281100 0.5 103321
08:00−9˚se1180100 0.1 103422
11:00−6˚wnw107999 0.2 1029209
14:00−5˚nw1079100 0.0 1025239
17:00−6˚ne1187100 0.1 102621
20:00−6˚ese1195100 1.6 102723
4 december, fri
fri423:00−6˚sse2295100 3.2 102541
02:00−6˚se2295100 1.3 102438
05:00−7˚s1195100 4.2 102225
08:00−6˚ssw1196100 2.4 102387
11:00−4˚w3396100 4.6 1022258
14:00−3˚wsw4492100 1.4 1020437
17:00−7˚wsw2397100 2.6 102436
20:00−11˚ssw1295100 0.6 102821
5 december, sat
sat523:00−12˚s1193100 0.8 103121
02:00−13˚sse1193100 0.1 103221
05:00−14˚se1192100 0.2 103320
08:00−14˚e1185100 0.1 103420
11:00−10˚wnw117895 0.1 1028285
14:00−8˚w117712 0.0 1024337
17:00−13˚se118310 0.0 102821
20:00−15˚ese226729 0.0 103120
6 december, sun
sun623:00−15˚ese226262 0.0 103320
02:00−17˚ese225967 0.0 103420
05:00−17˚ese225759 0.0 103520
08:00−17˚ese225762 0.0 103820
11:00−12˚wnw115565 0.0 1032293
14:00−9˚wnw1165100 0.0 1028279
17:00−14˚ese127098 0.0 103121
20:00−14˚e1256100 0.0 103220